Wetterdaten: Woche 31.12.12 - 06.01.13 (KW1)
Datum Zeit Temp. A. Feuchte I. Feuchte A. Luftdruck Regen Wind Richtung ET UV Solar Taupunkt Windchill Windben
31.12.2012 00:00 4,3 C 49 % 73 % 1087,2 hPa 0,0 l/m 8,4 km/h (2 Bft) W 0,000 mm 0,0 UV-I 0 W/m -0,1 C 2,6 C 19,7 km/h (3 Bft)
31.12.2012 01:00 4,2 C 49 % 74 % 1087,2 hPa 0,0 l/m 5,1 km/h (1 Bft) S-SW 0,000 mm 0,0 UV-I 0 W/m -0,1 C 4,1 C 15,7 km/h (3 Bft)
31.12.2012 02:00 4,2 C 50 % 74 % 1087,3 hPa 0,0 l/m 5,1 km/h (1 Bft) W 0,000 mm 0,0 UV-I 0 W/m -0,0 C 4,1 C 15,8 km/h (3 Bft)
31.12.2012 03:00 4,4 C 51 % 74 % 1087,0 hPa 0,0 l/m 7,5 km/h (2 Bft) W 0,000 mm 0,0 UV-I 0 W/m 0,1 C 3,4 C 19,6 km/h (3 Bft)
31.12.2012 04:00 4,1 C 52 % 75 % 1086,9 hPa 0,0 l/m 4,3 km/h (1 Bft) S-SW 0,000 mm 0,0 UV-I 0 W/m 0,0 C 3,9 C 12,7 km/h (3 Bft)
31.12.2012 05:00 3,2 C 52 % 76 % 1086,8 hPa 0,0 l/m 4,0 km/h (1 Bft) S-SW 0,000 mm 0,0 UV-I 0 W/m -0,6 C 3,2 C 12,8 km/h (3 Bft)
31.12.2012 06:00 2,8 C 52 % 73 % 1086,8 hPa 0,0 l/m 2,0 km/h (1 Bft) NO 0,000 mm 0,0 UV-I 0 W/m -1,6 C 2,8 C 8,9 km/h (2 Bft)
31.12.2012 07:00 2,7 C 53 % 73 % 1086,6 hPa 0,0 l/m 4,3 km/h (1 Bft) SW 0,000 mm 0,0 UV-I 0 W/m -1,6 C 2,7 C 12,1 km/h (2 Bft)
31.12.2012 08:00 2,2 C 53 % 73 % 1086,9 hPa 0,0 l/m 3,3 km/h (1 Bft) SO 0,000 mm 0,0 UV-I 0 W/m -2,1 C 2,2 C 10,8 km/h (2 Bft)
31.12.2012 09:00 2,9 C 53 % 73 % 1086,6 hPa 0,0 l/m 6,6 km/h (2 Bft) SW 0,000 mm 0,0 UV-I 0 W/m -1,5 C 2,0 C 16,3 km/h (3 Bft)
31.12.2012 10:00 3,5 C 52 % 75 % 1086,4 hPa 0,0 l/m 4,3 km/h (1 Bft) N-NW 0,000 mm 0,0 UV-I 0 W/m -0,5 C 3,4 C 12,3 km/h (3 Bft)
31.12.2012 11:00 3,7 C 50 % 75 % 1085,7 hPa 0,0 l/m 3,8 km/h (1 Bft) SW 0,000 mm 0,0 UV-I 0 W/m -0,3 C 3,7 C 11,7 km/h (2 Bft)
31.12.2012 12:00 4,5 C 45 % 72 % 1084,6 hPa 0,0 l/m 7,9 km/h (2 Bft) SW 0,000 mm 0,0 UV-I 0 W/m -0,0 C 2,9 C 18,9 km/h (3 Bft)
31.12.2012 13:00 5,4 C 43 % 69 % 1083,4 hPa 0,0 l/m 6,3 km/h (2 Bft) S-SW 0,000 mm 0,0 UV-I 0 W/m 0,2 C 4,7 C 16,8 km/h (3 Bft)
31.12.2012 14:00 5,5 C 44 % 69 % 1082,8 hPa 0,0 l/m 4,5 km/h (1 Bft) SW 0,000 mm 0,0 UV-I 0 W/m 0,4 C 5,5 C 12,5 km/h (3 Bft)
31.12.2012 15:00 5,3 C 43 % 69 % 1082,4 hPa 0,0 l/m 3,4 km/h (1 Bft) SW 0,000 mm 0,0 UV-I 0 W/m 0,1 C 5,3 C 7,7 km/h (2 Bft)
31.12.2012 16:00 4,0 C 44 % 74 % 1082,2 hPa 0,0 l/m 3,8 km/h (1 Bft) O-SO 0,000 mm 0,0 UV-I 0 W/m -0,3 C 4,0 C 8,9 km/h (2 Bft)
31.12.2012 17:00 3,0 C 44 % 74 % 1081,9 hPa 0,0 l/m 4,3 km/h (1 Bft) SO 0,000 mm 0,0 UV-I 0 W/m -1,1 C 3,0 C 11,2 km/h (2 Bft)
31.12.2012 18:00 2,9 C 45 % 73 % 1081,4 hPa 0,0 l/m 4,1 km/h (1 Bft) S-SO 0,000 mm 0,0 UV-I 0 W/m -1,4 C 2,9 C 10,5 km/h (2 Bft)
31.12.2012 19:00 2,9 C 49 % 74 % 1081,0 hPa 0,0 l/m 5,3 km/h (1 Bft) SO 0,000 mm 0,0 UV-I 0 W/m -1,3 C 2,8 C 13,2 km/h (3 Bft)
31.12.2012 20:00 2,3 C 45 % 72 % 1080,3 hPa 0,0 l/m 4,2 km/h (1 Bft) SO 0,000 mm 0,0 UV-I 0 W/m -2,3 C 2,2 C 11,0 km/h (2 Bft)
31.12.2012 21:00 1,9 C 45 % 73 % 1079,5 hPa 0,0 l/m 4,3 km/h (1 Bft) S-SO 0,000 mm 0,0 UV-I 0 W/m -2,5 C 1,9 C 10,6 km/h (2 Bft)
31.12.2012 22:00 1,5 C 45 % 73 % 1078,9 hPa 0,0 l/m 1,2 km/h (1 Bft) SW 0,000 mm 0,0 UV-I 0 W/m -2,8 C 1,5 C 5,1 km/h (1 Bft)
31.12.2012 23:00 1,5 C 44 % 72 % 1078,5 hPa 0,0 l/m 0,0 km/h (0 Bft) N 0,000 mm 0,0 UV-I 0 W/m -2,9 C 1,5 C 2,0 km/h (1 Bft)
01.01.2013 00:00 1,0 C 43 % 73 % 1077,9 hPa 0,0 l/m 0,0 km/h (0 Bft) N 0,000 mm 0,0 UV-I 0 W/m -3,4 C 1,0 C 0,2 km/h (0 Bft)
01.01.2013 01:00 0,6 C 43 % 73 % 1077,0 hPa 0,0 l/m 0,0 km/h (0 Bft) N 0,000 mm 0,0 UV-I 0 W/m -3,6 C 0,6 C 0,9 km/h (0 Bft)
01.01.2013 02:00 0,6 C 44 % 73 % 1076,5 hPa 0,0 l/m 0,1 km/h (0 Bft) N 0,000 mm 0,0 UV-I 0 W/m -3,6 C 0,6 C 2,2 km/h (1 Bft)
01.01.2013 03:00 0,7 C 45 % 73 % 1075,8 hPa 0,0 l/m 1,2 km/h (1 Bft) W 0,000 mm 0,0 UV-I 0 W/m -3,5 C 0,7 C 9,3 km/h (2 Bft)
01.01.2013 04:00 1,0 C 46 % 71 % 1075,1 hPa 0,0 l/m 2,2 km/h (1 Bft) W 0,000 mm 0,0 UV-I 0 W/m -3,6 C 1,0 C 9,1 km/h (2 Bft)
01.01.2013 05:00 1,2 C 47 % 68 % 1074,7 hPa 0,0 l/m 0,4 km/h (0 Bft) S-SW 0,000 mm 0,0 UV-I 0 W/m -4,0 C 1,2 C 5,6 km/h (1 Bft)
01.01.2013 06:00 0,8 C 48 % 70 % 1074,9 hPa 0,0 l/m 1,5 km/h (1 Bft) W-SW 0,000 mm 0,0 UV-I 0 W/m -4,1 C 0,8 C 6,9 km/h (2 Bft)
01.01.2013 07:00 0,3 C 48 % 71 % 1075,2 hPa 0,0 l/m 0,9 km/h (0 Bft) W 0,000 mm 0,0 UV-I 0 W/m -4,4 C 0,3 C 4,2 km/h (1 Bft)
01.01.2013 08:00 -0,3 C 48 % 72 % 1075,2 hPa 0,0 l/m 0,3 km/h (0 Bft) W 0,000 mm 0,0 UV-I 0 W/m -4,7 C -0,3 C 1,2 km/h (1 Bft)
01.01.2013 09:00 -0,5 C 48 % 74 % 1075,3 hPa 0,0 l/m 0,5 km/h (0 Bft) N 0,000 mm 0,0 UV-I 0 W/m -4,7 C -0,5 C 3,0 km/h (1 Bft)
01.01.2013 10:00 1,2 C 45 % 71 % 1074,7 hPa 0,0 l/m 0,1 km/h (0 Bft) N 0,000 mm 0,0 UV-I 0 W/m -3,5 C 1,2 C 0,5 km/h (0 Bft)
01.01.2013 11:00 4,2 C 43 % 63 % 1073,5 hPa 0,0 l/m 1,3 km/h (1 Bft) SW 0,000 mm 0,0 UV-I 0 W/m -2,1 C 4,2 C 6,8 km/h (2 Bft)
01.01.2013 12:00 4,2 C 41 % 62 % 1073,3 hPa 0,0 l/m 1,4 km/h (1 Bft) W 0,000 mm 0,0 UV-I 0 W/m -2,3 C 4,2 C 7,5 km/h (2 Bft)
01.01.2013 13:00 3,7 C 40 % 65 % 1073,5 hPa 0,0 l/m 0,5 km/h (0 Bft) W 0,000 mm 0,0 UV-I 0 W/m -2,2 C 3,7 C 5,7 km/h (1 Bft)
01.01.2013 14:00 3,4 C 40 % 67 % 1073,4 hPa 0,0 l/m 2,8 km/h (1 Bft) SO 0,000 mm 0,0 UV-I 0 W/m -2,1 C 3,4 C 9,3 km/h (2 Bft)
01.01.2013 15:00 3,7 C 41 % 69 % 1073,4 hPa 0,0 l/m 0,9 km/h (0 Bft) S-SW 0,000 mm 0,0 UV-I 0 W/m -1,5 C 3,7 C 6,3 km/h (2 Bft)
01.01.2013 16:00 3,2 C 40 % 73 % 1073,8 hPa 0,0 l/m 3,1 km/h (1 Bft) S-SW 0,000 mm 0,0 UV-I 0 W/m -1,2 C 3,1 C 10,2 km/h (2 Bft)
01.01.2013 17:00 3,0 C 41 % 76 % 1074,2 hPa 0,0 l/m 5,3 km/h (1 Bft) W-SW 0,000 mm 0,0 UV-I 0 W/m -0,8 C 2,8 C 13,1 km/h (3 Bft)
01.01.2013 18:00 2,9 C 42 % 74 % 1074,7 hPa 0,0 l/m 3,2 km/h (1 Bft) SW 0,000 mm 0,0 UV-I 0 W/m -1,3 C 2,9 C 9,6 km/h (2 Bft)
01.01.2013 19:00 2,9 C 44 % 75 % 1075,2 hPa 0,0 l/m 2,9 km/h (1 Bft) W 0,000 mm 0,0 UV-I 0 W/m -1,0 C 2,9 C 11,6 km/h (2 Bft)
01.01.2013 20:00 2,9 C 45 % 78 % 1075,6 hPa 0,0 l/m 0,4 km/h (0 Bft) N 0,000 mm 0,0 UV-I 0 W/m -0,6 C 2,9 C 5,2 km/h (1 Bft)
01.01.2013 21:00 2,9 C 46 % 81 % 1075,9 hPa 0,0 l/m 2,6 km/h (1 Bft) SW 0,000 mm 0,0 UV-I 0 W/m 0,0 C 2,9 C 8,3 km/h (2 Bft)
01.01.2013 22:00 3,2 C 46 % 86 % 1076,3 hPa 0,0 l/m 2,3 km/h (1 Bft) SW 0,000 mm 0,0 UV-I 0 W/m 1,0 C 3,2 C 8,1 km/h (2 Bft)
01.01.2013 23:00 3,5 C 47 % 85 % 1076,8 hPa 0,0 l/m 4,2 km/h (1 Bft) S-SW 0,000 mm 0,0 UV-I 0 W/m 1,2 C 3,5 C 12,0 km/h (2 Bft)
02.01.2013 00:00 3,6 C 45 % 85 % 1077,4 hPa 0,0 l/m 3,7 km/h (1 Bft) SW 0,000 mm 0,0 UV-I 0 W/m 1,3 C 3,6 C 12,3 km/h (3 Bft)
02.01.2013 01:00 2,6 C 45 % 80 % 1078,8 hPa 0,0 l/m 1,2 km/h (1 Bft) N 0,000 mm 0,0 UV-I 0 W/m -0,5 C 2,6 C 6,8 km/h (2 Bft)
02.01.2013 02:00 1,6 C 45 % 79 % 1079,9 hPa 0,0 l/m 0,3 km/h (0 Bft) W 0,000 mm 0,0 UV-I 0 W/m -1,6 C 1,6 C 2,7 km/h (1 Bft)
02.01.2013 03:00 1,0 C 46 % 79 % 1080,8 hPa 0,0 l/m 1,6 km/h (1 Bft) W 0,000 mm 0,0 UV-I 0 W/m -2,2 C 1,0 C 5,4 km/h (1 Bft)
02.01.2013 04:00 0,2 C 46 % 79 % 1082,0 hPa 0,0 l/m 0,5 km/h (0 Bft) W-SW 0,000 mm 0,0 UV-I 0 W/m -2,9 C 0,2 C 2,8 km/h (1 Bft)
02.01.2013 05:00 0,2 C 47 % 80 % 1082,7 hPa 0,0 l/m 2,9 km/h (1 Bft) W-SW 0,000 mm 0,0 UV-I 0 W/m -2,8 C 0,2 C 8,2 km/h (2 Bft)
02.01.2013 06:00 -0,1 C 47 % 80 % 1083,7 hPa 0,0 l/m 0,1 km/h (0 Bft) N 0,000 mm 0,0 UV-I 0 W/m -3,2 C -0,1 C 1,3 km/h (1 Bft)
02.01.2013 07:00 0,3 C 48 % 79 % 1084,5 hPa 0,0 l/m 2,5 km/h (1 Bft) W-SW 0,000 mm 0,0 UV-I 0 W/m -2,9 C 0,3 C 10,0 km/h (2 Bft)
02.01.2013 08:00 0,4 C 49 % 78 % 1085,7 hPa 0,0 l/m 0,4 km/h (0 Bft) N 0,000 mm 0,0 UV-I 0 W/m -2,9 C 0,4 C 5,9 km/h (2 Bft)
02.01.2013 09:00 0,5 C 49 % 78 % 1086,9 hPa 0,0 l/m 1,4 km/h (1 Bft) W-SW 0,000 mm 0,0 UV-I 0 W/m -2,9 C 0,5 C 6,9 km/h (2 Bft)
02.01.2013 10:00 0,8 C 48 % 78 % 1087,7 hPa 0,0 l/m 2,3 km/h (1 Bft) W 0,000 mm 0,0 UV-I 0 W/m -2,6 C 0,8 C 7,3 km/h (2 Bft)
02.01.2013 11:00 1,5 C 46 % 76 % 1087,9 hPa 0,0 l/m 3,4 km/h (1 Bft) S-SW 0,000 mm 0,0 UV-I 0 W/m -2,4 C 1,5 C 10,2 km/h (2 Bft)
02.01.2013 12:00 2,1 C 44 % 72 % 1088,0 hPa 0,0 l/m 4,4 km/h (1 Bft) W 0,000 mm 0,0 UV-I 0 W/m -2,4 C 2,1 C 11,7 km/h (2 Bft)
02.01.2013 13:00 2,1 C 44 % 72 % 1088,7 hPa 0,0 l/m 8,4 km/h (2 Bft) W-SW 0,000 mm 0,0 UV-I 0 W/m -2,3 C 0,2 C 19,6 km/h (3 Bft)
02.01.2013 14:00 1,7 C 44 % 74 % 1089,5 hPa 0,0 l/m 8,6 km/h (2 Bft) W 0,000 mm 0,0 UV-I 0 W/m -2,4 C -0,4 C 20,2 km/h (4 Bft)
02.01.2013 15:00 1,8 C 42 % 73 % 1090,4 hPa 0,0 l/m 5,6 km/h (1 Bft) W 0,000 mm 0,0 UV-I 0 W/m -2,5 C 1,7 C 12,8 km/h (3 Bft)
02.01.2013 16:00 1,9 C 43 % 72 % 1091,4 hPa 0,0 l/m 6,0 km/h (2 Bft) W-SW 0,000 mm 0,0 UV-I 0 W/m -2,6 C 1,5 C 13,5 km/h (3 Bft)
02.01.2013 17:00 1,8 C 43 % 72 % 1092,2 hPa 0,0 l/m 3,5 km/h (1 Bft) W-SW 0,000 mm 0,0 UV-I 0 W/m -2,7 C 1,8 C 9,9 km/h (2 Bft)
02.01.2013 18:00 1,7 C 44 % 72 % 1093,0 hPa 0,0 l/m 5,4 km/h (1 Bft) W 0,000 mm 0,0 UV-I 0 W/m -2,9 C 1,4 C 12,2 km/h (2 Bft)
02.01.2013 19:00 1,7 C 45 % 72 % 1093,7 hPa 0,0 l/m 3,8 km/h (1 Bft) W 0,000 mm 0,0 UV-I 0 W/m -2,8 C 1,5 C 10,7 km/h (2 Bft)
02.01.2013 20:00 1,5 C 45 % 74 % 1094,2 hPa 0,0 l/m 1,2 km/h (1 Bft) S-SW 0,000 mm 0,0 UV-I 0 W/m -2,7 C 1,5 C 6,8 km/h (2 Bft)
02.01.2013 21:00 1,4 C 43 % 75 % 1094,8 hPa 0,0 l/m 1,5 km/h (1 Bft) W-SW 0,000 mm 0,0 UV-I 0 W/m -2,5 C 1,4 C 7,1 km/h (2 Bft)
02.01.2013 22:00 1,4 C 42 % 75 % 1095,3 hPa 0,0 l/m 1,3 km/h (1 Bft) W-SW 0,000 mm 0,0 UV-I 0 W/m -2,5 C 1,4 C 7,4 km/h (2 Bft)
02.01.2013 23:00 1,3 C 41 % 75 % 1095,4 hPa 0,0 l/m 0,9 km/h (0 Bft) W-SW 0,000 mm 0,0 UV-I 0 W/m -2,6 C 1,3 C 6,0 km/h (2 Bft)
03.01.2013 00:00 0,9 C 42 % 76 % 1095,6 hPa 0,0 l/m 1,2 km/h (1 Bft) W-NW 0,000 mm 0,0 UV-I 0 W/m -2,8 C 0,9 C 6,9 km/h (2 Bft)
03.01.2013 01:00 0,3 C 43 % 77 % 1095,6 hPa 0,0 l/m 1,9 km/h (1 Bft) W 0,000 mm 0,0 UV-I 0 W/m -3,2 C 0,3 C 8,9 km/h (2 Bft)
03.01.2013 02:00 0,0 C 43 % 78 % 1095,8 hPa 0,0 l/m 3,0 km/h (1 Bft) W-NW 0,000 mm 0,0 UV-I 0 W/m -3,3 C 0,0 C 10,3 km/h (2 Bft)
03.01.2013 03:00 -0,1 C 43 % 79 % 1096,1 hPa 0,0 l/m 1,6 km/h (1 Bft) W 0,000 mm 0,0 UV-I 0 W/m -3,3 C -0,1 C 9,1 km/h (2 Bft)
03.01.2013 04:00 -0,1 C 43 % 80 % 1095,6 hPa 0,0 l/m 0,4 km/h (0 Bft) O-SO 0,000 mm 0,0 UV-I 0 W/m -3,2 C -0,1 C 6,3 km/h (2 Bft)
03.01.2013 05:00 0,0 C 43 % 79 % 1095,3 hPa 0,0 l/m 1,1 km/h (1 Bft) S-SW 0,000 mm 0,0 UV-I 0 W/m -3,2 C 0,0 C 9,7 km/h (2 Bft)
03.01.2013 06:00 0,2 C 43 % 79 % 1095,1 hPa 0,0 l/m 2,4 km/h (1 Bft) S-SW 0,000 mm 0,0 UV-I 0 W/m -3,0 C 0,2 C 10,3 km/h (2 Bft)
03.01.2013 07:00 0,3 C 43 % 78 % 1095,3 hPa 0,0 l/m 3,0 km/h (1 Bft) W-SW 0,000 mm 0,0 UV-I 0 W/m -3,1 C 0,3 C 13,5 km/h (3 Bft)
03.01.2013 08:00 0,1 C 43 % 80 % 1095,6 hPa 0,0 l/m 4,2 km/h (1 Bft) SW 0,000 mm 0,0 UV-I 0 W/m -3,0 C 0,1 C 12,9 km/h (3 Bft)
03.01.2013 09:00 0,2 C 43 % 81 % 1096,1 hPa 1,2 l/m 3,8 km/h (1 Bft) W-SW 0,000 mm 0,0 UV-I 0 W/m -2,7 C 0,2 C 11,1 km/h (2 Bft)
03.01.2013 10:00 0,4 C 43 % 82 % 1096,3 hPa 0,9 l/m 3,4 km/h (1 Bft) SW 0,000 mm 0,0 UV-I 0 W/m -2,3 C 0,4 C 11,3 km/h (2 Bft)
03.01.2013 11:00 0,6 C 44 % 83 % 1096,3 hPa 0,3 l/m 4,1 km/h (1 Bft) S-SW 0,000 mm 0,0 UV-I 0 W/m -2,0 C 0,6 C 11,1 km/h (2 Bft)
03.01.2013 12:00 0,8 C 43 % 84 % 1096,0 hPa 0,0 l/m 4,9 km/h (1 Bft) W-SW 0,000 mm 0,0 UV-I 0 W/m -1,6 C 0,8 C 12,5 km/h (3 Bft)
03.01.2013 13:00 1,1 C 43 % 83 % 1095,9 hPa 0,0 l/m 3,1 km/h (1 Bft) S 0,000 mm 0,0 UV-I 0 W/m -1,5 C 1,1 C 9,4 km/h (2 Bft)
03.01.2013 14:00 1,5 C 44 % 84 % 1095,8 hPa 0,0 l/m 2,5 km/h (1 Bft) S-SW 0,000 mm 0,0 UV-I 0 W/m -0,9 C 1,5 C 9,6 km/h (2 Bft)
03.01.2013 15:00 1,9 C 44 % 84 % 1096,1 hPa 0,0 l/m 4,9 km/h (1 Bft) W 0,000 mm 0,0 UV-I 0 W/m -0,6 C 1,8 C 13,5 km/h (3 Bft)
03.01.2013 16:00 2,1 C 44 % 83 % 1096,3 hPa 0,0 l/m 5,2 km/h (1 Bft) W-SW 0,000 mm 0,0 UV-I 0 W/m -0,4 C 2,0 C 14,2 km/h (3 Bft)
03.01.2013 17:00 2,5 C 45 % 83 % 1096,5 hPa 0,3 l/m 7,2 km/h (2 Bft) W 0,000 mm 0,0 UV-I 0 W/m -0,1 C 1,4 C 17,1 km/h (3 Bft)
03.01.2013 18:00 2,7 C 46 % 83 % 1096,5 hPa 0,0 l/m 8,8 km/h (2 Bft) W-SW 0,000 mm 0,0 UV-I 0 W/m 0,1 C 0,6 C 18,7 km/h (3 Bft)
03.01.2013 19:00 2,8 C 47 % 83 % 1097,0 hPa 0,0 l/m 7,9 km/h (2 Bft) W 0,000 mm 0,0 UV-I 0 W/m 0,3 C 1,4 C 17,4 km/h (3 Bft)
03.01.2013 20:00 3,1 C 48 % 87 % 1097,0 hPa 0,0 l/m 8,5 km/h (2 Bft) W 0,000 mm 0,0 UV-I 0 W/m 1,1 C 1,2 C 17,9 km/h (3 Bft)
03.01.2013 21:00 3,3 C 48 % 88 % 1097,1 hPa 0,0 l/m 7,9 km/h (2 Bft) W 0,000 mm 0,0 UV-I 0 W/m 1,4 C 1,9 C 16,8 km/h (3 Bft)
03.01.2013 22:00 3,5 C 48 % 88 % 1097,3 hPa 0,0 l/m 8,2 km/h (2 Bft) W 0,000 mm 0,0 UV-I 0 W/m 1,7 C 1,8 C 19,0 km/h (3 Bft)
03.01.2013 23:00 3,6 C 48 % 88 % 1097,3 hPa 0,0 l/m 7,2 km/h (2 Bft) W-SW 0,000 mm 0,0 UV-I 0 W/m 1,9 C 2,8 C 16,0 km/h (3 Bft)
04.01.2013 00:00 3,9 C 47 % 89 % 1096,7 hPa 0,0 l/m 6,9 km/h (2 Bft) W 0,000 mm 0,0 UV-I 0 W/m 2,2 C 3,1 C 17,2 km/h (3 Bft)
04.01.2013 01:00 4,1 C 47 % 88 % 1096,3 hPa 0,0 l/m 8,1 km/h (2 Bft) W 0,000 mm 0,0 UV-I 0 W/m 2,3 C 2,3 C 18,3 km/h (3 Bft)
04.01.2013 02:00 4,5 C 47 % 88 % 1096,8 hPa 0,0 l/m 1,0 km/h (0 Bft) W 0,000 mm 0,0 UV-I 0 W/m 2,7 C 4,5 C 4,6 km/h (1 Bft)
04.01.2013 03:00 4,7 C 47 % 88 % 1097,0 hPa 0,0 l/m 0,6 km/h (0 Bft) W-SW 0,000 mm 0,0 UV-I 0 W/m 2,9 C 4,7 C 4,7 km/h (1 Bft)
04.01.2013 04:00 5,1 C 48 % 87 % 1096,7 hPa 0,0 l/m 1,5 km/h (1 Bft) W-NW 0,000 mm 0,0 UV-I 0 W/m 3,1 C 5,1 C 4,4 km/h (1 Bft)
04.01.2013 05:00 5,1 C 48 % 86 % 1096,5 hPa 0,0 l/m 0,3 km/h (0 Bft) N 0,000 mm 0,0 UV-I 0 W/m 2,9 C 5,1 C 1,5 km/h (1 Bft)
04.01.2013 06:00 5,3 C 49 % 86 % 1096,5 hPa 0,0 l/m 2,9 km/h (1 Bft) W 0,000 mm 0,0 UV-I 0 W/m 3,2 C 5,3 C 6,9 km/h (2 Bft)
04.01.2013 07:00 5,4 C 49 % 86 % 1097,0 hPa 0,0 l/m 4,3 km/h (1 Bft) W 0,000 mm 0,0 UV-I 0 W/m 3,2 C 5,4 C 8,8 km/h (2 Bft)
04.01.2013 08:00 5,6 C 49 % 85 % 1096,8 hPa 0,0 l/m 7,7 km/h (2 Bft) W 0,000 mm 0,0 UV-I 0 W/m 3,4 C 4,3 C 15,0 km/h (3 Bft)
04.01.2013 09:00 5,8 C 50 % 85 % 1097,0 hPa 0,0 l/m 7,4 km/h (2 Bft) W-SW 0,000 mm 0,0 UV-I 0 W/m 3,5 C 4,7 C 15,9 km/h (3 Bft)
04.01.2013 10:00 6,0 C 51 % 84 % 1097,3 hPa 0,0 l/m 7,1 km/h (2 Bft) W 0,000 mm 0,0 UV-I 0 W/m 3,5 C 5,4 C 14,5 km/h (3 Bft)
04.01.2013 11:00 6,0 C 52 % 84 % 1096,8 hPa 0,0 l/m 6,7 km/h (2 Bft) W-SW 0,000 mm 0,0 UV-I 0 W/m 3,5 C 5,6 C 16,2 km/h (3 Bft)
04.01.2013 12:00 5,9 C 51 % 85 % 1096,2 hPa 0,3 l/m 7,7 km/h (2 Bft) W-SW 0,000 mm 0,0 UV-I 0 W/m 3,6 C 4,8 C 16,6 km/h (3 Bft)
04.01.2013 13:00 5,9 C 51 % 86 % 1095,1 hPa 0,0 l/m 7,9 km/h (2 Bft) W 0,000 mm 0,0 UV-I 0 W/m 3,8 C 4,6 C 17,3 km/h (3 Bft)
04.01.2013 14:00 6,0 C 51 % 85 % 1094,4 hPa 0,0 l/m 9,1 km/h (2 Bft) W 0,000 mm 0,0 UV-I 0 W/m 3,7 C 3,8 C 20,6 km/h (4 Bft)
04.01.2013 15:00 6,0 C 50 % 86 % 1093,9 hPa 0,0 l/m 8,6 km/h (2 Bft) W 0,000 mm 0,0 UV-I 0 W/m 3,7 C 4,1 C 21,1 km/h (4 Bft)
04.01.2013 16:00 6,2 C 52 % 85 % 1093,3 hPa 0,0 l/m 8,4 km/h (2 Bft) W 0,000 mm 0,0 UV-I 0 W/m 3,9 C 4,5 C 18,5 km/h (3 Bft)
04.01.2013 17:00 6,5 C 53 % 86 % 1092,9 hPa 0,0 l/m 6,8 km/h (2 Bft) W 0,000 mm 0,0 UV-I 0 W/m 4,4 C 6,0 C 15,0 km/h (3 Bft)
04.01.2013 18:00 7,1 C 53 % 85 % 1092,4 hPa 0,3 l/m 5,0 km/h (1 Bft) W-SW 0,000 mm 0,0 UV-I 0 W/m 4,6 C 7,1 C 11,5 km/h (2 Bft)
04.01.2013 19:00 7,1 C 53 % 85 % 1092,1 hPa 0,6 l/m 5,4 km/h (1 Bft) W-SW 0,000 mm 0,0 UV-I 0 W/m 4,7 C 7,1 C 14,8 km/h (3 Bft)
04.01.2013 20:00 7,2 C 53 % 85 % 1091,9 hPa 0,6 l/m 4,1 km/h (1 Bft) W 0,000 mm 0,0 UV-I 0 W/m 4,8 C 7,2 C 11,4 km/h (2 Bft)
04.01.2013 21:00 7,3 C 53 % 85 % 1091,4 hPa 0,9 l/m 5,6 km/h (1 Bft) W 0,000 mm 0,0 UV-I 0 W/m 4,9 C 7,1 C 17,9 km/h (3 Bft)
04.01.2013 22:00 7,2 C 52 % 84 % 1090,8 hPa 0,3 l/m 5,2 km/h (1 Bft) W-NW 0,000 mm 0,0 UV-I 0 W/m 4,7 C 7,1 C 12,6 km/h (3 Bft)
04.01.2013 23:00 7,1 C 52 % 84 % 1090,4 hPa 0,3 l/m 5,9 km/h (2 Bft) W 0,000 mm 0,0 UV-I 0 W/m 4,6 C 6,8 C 15,4 km/h (3 Bft)
05.01.2013 00:00 7,0 C 52 % 84 % 1090,1 hPa 0,3 l/m 5,3 km/h (1 Bft) W 0,000 mm 0,0 UV-I 0 W/m 4,5 C 7,0 C 14,1 km/h (3 Bft)
05.01.2013 01:00 6,8 C 52 % 85 % 1090,0 hPa 0,6 l/m 3,9 km/h (1 Bft) W 0,000 mm 0,0 UV-I 0 W/m 4,5 C 6,8 C 11,4 km/h (2 Bft)
05.01.2013 02:00 6,6 C 52 % 86 % 1090,0 hPa 0,9 l/m 1,6 km/h (1 Bft) N 0,000 mm 0,0 UV-I 0 W/m 4,4 C 6,6 C 6,9 km/h (2 Bft)
05.01.2013 03:00 6,4 C 52 % 86 % 1090,2 hPa 0,3 l/m 2,3 km/h (1 Bft) W-NW 0,000 mm 0,0 UV-I 0 W/m 4,2 C 6,4 C 7,4 km/h (2 Bft)
05.01.2013 04:00 6,4 C 53 % 86 % 1090,2 hPa 0,0 l/m 2,2 km/h (1 Bft) N 0,000 mm 0,0 UV-I 0 W/m 4,2 C 6,4 C 9,9 km/h (2 Bft)
05.01.2013 05:00 6,4 C 53 % 85 % 1089,9 hPa 0,3 l/m 3,9 km/h (1 Bft) N 0,000 mm 0,0 UV-I 0 W/m 4,1 C 6,4 C 14,2 km/h (3 Bft)
05.01.2013 06:00 6,3 C 53 % 84 % 1090,0 hPa 0,0 l/m 4,7 km/h (1 Bft) N 0,000 mm 0,0 UV-I 0 W/m 3,8 C 6,0 C 17,4 km/h (3 Bft)
05.01.2013 07:00 6,0 C 53 % 85 % 1090,7 hPa 0,0 l/m 3,6 km/h (1 Bft) N 0,000 mm 0,0 UV-I 0 W/m 3,7 C 6,0 C 13,0 km/h (3 Bft)
05.01.2013 08:00 5,8 C 53 % 87 % 1091,0 hPa 0,3 l/m 2,9 km/h (1 Bft) N 0,000 mm 0,0 UV-I 0 W/m 3,8 C 5,8 C 11,8 km/h (2 Bft)
05.01.2013 09:00 5,9 C 53 % 87 % 1091,2 hPa 0,0 l/m 2,8 km/h (1 Bft) NW 0,000 mm 0,0 UV-I 0 W/m 3,9 C 5,9 C 10,3 km/h (2 Bft)
05.01.2013 10:00 6,0 C 52 % 86 % 1091,6 hPa 0,0 l/m 3,0 km/h (1 Bft) NW 0,000 mm 0,0 UV-I 0 W/m 3,8 C 6,0 C 10,2 km/h (2 Bft)
05.01.2013 11:00 6,1 C 52 % 86 % 1091,8 hPa 0,3 l/m 3,2 km/h (1 Bft) NW 0,000 mm 0,0 UV-I 0 W/m 3,9 C 6,1 C 10,9 km/h (2 Bft)
05.01.2013 12:00 6,4 C 52 % 85 % 1091,6 hPa 0,0 l/m 3,6 km/h (1 Bft) NW 0,000 mm 0,0 UV-I 0 W/m 4,1 C 6,4 C 11,3 km/h (2 Bft)
05.01.2013 13:00 6,7 C 52 % 84 % 1091,4 hPa 0,0 l/m 3,4 km/h (1 Bft) N-NW 0,000 mm 0,0 UV-I 0 W/m 4,2 C 6,7 C 11,7 km/h (2 Bft)
05.01.2013 14:00 6,4 C 51 % 83 % 1091,8 hPa 0,0 l/m 3,6 km/h (1 Bft) N-NW 0,000 mm 0,0 UV-I 0 W/m 3,8 C 6,4 C 12,5 km/h (3 Bft)
05.01.2013 15:00 5,8 C 50 % 85 % 1092,4 hPa 0,0 l/m 2,6 km/h (1 Bft) N 0,000 mm 0,0 UV-I 0 W/m 3,5 C 5,8 C 9,8 km/h (2 Bft)
05.01.2013 16:00 5,4 C 48 % 85 % 1092,8 hPa 0,3 l/m 0,9 km/h (0 Bft) N 0,000 mm 0,0 UV-I 0 W/m 3,0 C 5,4 C 5,5 km/h (1 Bft)
05.01.2013 17:00 5,2 C 48 % 85 % 1093,0 hPa 0,0 l/m 0,9 km/h (0 Bft) N-NW 0,000 mm 0,0 UV-I 0 W/m 2,9 C 5,2 C 5,6 km/h (1 Bft)
05.01.2013 18:00 5,2 C 49 % 84 % 1093,1 hPa 0,0 l/m 1,1 km/h (0 Bft) N-NO 0,000 mm 0,0 UV-I 0 W/m 2,7 C 5,2 C 5,6 km/h (1 Bft)
05.01.2013 19:00 5,2 C 50 % 84 % 1093,4 hPa 0,0 l/m 1,2 km/h (1 Bft) N-NW 0,000 mm 0,0 UV-I 0 W/m 2,7 C 5,2 C 6,7 km/h (2 Bft)
05.01.2013 20:00 5,1 C 56 % 84 % 1093,6 hPa 0,0 l/m 0,3 km/h (0 Bft) N 0,000 mm 0,0 UV-I 0 W/m 2,6 C 5,1 C 4,1 km/h (1 Bft)
05.01.2013 21:00 5,0 C 53 % 84 % 1093,8 hPa 0,0 l/m 0,8 km/h (0 Bft) W 0,000 mm 0,0 UV-I 0 W/m 2,5 C 5,0 C 5,0 km/h (1 Bft)
05.01.2013 22:00 5,0 C 54 % 84 % 1093,5 hPa 0,0 l/m 1,6 km/h (1 Bft) W-SW 0,000 mm 0,0 UV-I 0 W/m 2,5 C 5,0 C 6,5 km/h (2 Bft)
05.01.2013 23:00 5,0 C 55 % 85 % 1093,5 hPa 0,0 l/m 1,6 km/h (1 Bft) W 0,000 mm 0,0 UV-I 0 W/m 2,7 C 5,0 C 5,4 km/h (1 Bft)
06.01.2013 00:00 5,0 C 53 % 85 % 1093,4 hPa 0,0 l/m 1,9 km/h (1 Bft) W-SW 0,000 mm 0,0 UV-I 0 W/m 2,7 C 5,0 C 6,3 km/h (2 Bft)
06.01.2013 01:00 4,8 C 52 % 86 % 1093,2 hPa 0,0 l/m 1,1 km/h (1 Bft) W 0,000 mm 0,0 UV-I 0 W/m 2,6 C 4,8 C 4,6 km/h (1 Bft)
06.01.2013 02:00 4,7 C 52 % 87 % 1093,1 hPa 0,0 l/m 1,6 km/h (1 Bft) W-SW 0,000 mm 0,0 UV-I 0 W/m 2,7 C 4,7 C 4,5 km/h (1 Bft)
06.01.2013 03:00 4,7 C 52 % 87 % 1092,8 hPa 0,0 l/m 0,5 km/h (0 Bft) N 0,000 mm 0,0 UV-I 0 W/m 2,7 C 4,7 C 3,4 km/h (1 Bft)
06.01.2013 04:00 4,8 C 52 % 86 % 1092,1 hPa 0,0 l/m 2,7 km/h (1 Bft) W-SW 0,000 mm 0,0 UV-I 0 W/m 2,7 C 4,8 C 6,4 km/h (2 Bft)
06.01.2013 05:00 4,7 C 52 % 85 % 1091,6 hPa 0,0 l/m 3,3 km/h (1 Bft) W-SW 0,000 mm 0,0 UV-I 0 W/m 2,4 C 4,7 C 6,9 km/h (2 Bft)
06.01.2013 06:00 4,7 C 52 % 85 % 1091,5 hPa 0,0 l/m 3,0 km/h (1 Bft) W-SW 0,000 mm 0,0 UV-I 0 W/m 2,4 C 4,7 C 6,9 km/h (2 Bft)
06.01.2013 07:00 4,6 C 53 % 85 % 1091,2 hPa 0,0 l/m 2,8 km/h (1 Bft) W-SW 0,000 mm 0,0 UV-I 0 W/m 2,3 C 4,6 C 6,5 km/h (2 Bft)
06.01.2013 08:00 4,3 C 53 % 84 % 1091,2 hPa 0,0 l/m 3,4 km/h (1 Bft) W-SW 0,000 mm 0,0 UV-I 0 W/m 1,9 C 4,3 C 10,5 km/h (2 Bft)
06.01.2013 09:00 4,0 C 53 % 84 % 1091,1 hPa 0,0 l/m 4,1 km/h (1 Bft) W 0,000 mm 0,0 UV-I 0 W/m 1,7 C 4,0 C 12,5 km/h (3 Bft)
06.01.2013 10:00 4,2 C 53 % 84 % 1090,6 hPa 0,0 l/m 4,0 km/h (1 Bft) W 0,000 mm 0,0 UV-I 0 W/m 1,8 C 4,2 C 9,9 km/h (2 Bft)
06.01.2013 11:00 4,3 C 52 % 84 % 1090,0 hPa 0,0 l/m 4,2 km/h (1 Bft) W-NW 0,000 mm 0,0 UV-I 0 W/m 1,9 C 4,3 C 11,5 km/h (2 Bft)
06.01.2013 12:00 4,4 C 48 % 84 % 1089,3 hPa 0,0 l/m 3,5 km/h (1 Bft) W 0,000 mm 0,0 UV-I 0 W/m 1,9 C 4,4 C 11,4 km/h (2 Bft)
06.01.2013 13:00 4,2 C 46 % 83 % 1088,9 hPa 0,0 l/m 3,8 km/h (1 Bft) NW 0,000 mm 0,0 UV-I 0 W/m 1,5 C 4,2 C 11,6 km/h (2 Bft)
06.01.2013 14:00 3,7 C 46 % 86 % 1088,4 hPa 0,3 l/m 5,5 km/h (1 Bft) W 0,000 mm 0,0 UV-I 0 W/m 1,5 C 3,6 C 13,1 km/h (3 Bft)
06.01.2013 15:00 3,9 C 44 % 85 % 1088,1 hPa 0,0 l/m 5,5 km/h (1 Bft) W 0,000 mm 0,0 UV-I 0 W/m 1,6 C 3,8 C 13,5 km/h (3 Bft)
06.01.2013 16:00 4,0 C 45 % 85 % 1088,4 hPa 0,9 l/m 2,4 km/h (1 Bft) W 0,000 mm 0,0 UV-I 0 W/m 1,7 C 4,0 C 7,6 km/h (2 Bft)
06.01.2013 17:00 3,9 C 47 % 87 % 1088,5 hPa 0,3 l/m 3,7 km/h (1 Bft) W 0,000 mm 0,0 UV-I 0 W/m 1,9 C 3,9 C 9,2 km/h (2 Bft)
06.01.2013 18:00 4,1 C 46 % 86 % 1088,7 hPa 0,3 l/m 2,3 km/h (1 Bft) W 0,000 mm 0,0 UV-I 0 W/m 2,0 C 4,1 C 7,4 km/h (2 Bft)
06.01.2013 19:00 4,3 C 46 % 86 % 1088,7 hPa 0,3 l/m 3,4 km/h (1 Bft) W 0,000 mm 0,0 UV-I 0 W/m 2,2 C 4,3 C 9,1 km/h (2 Bft)
06.01.2013 20:00 4,5 C 49 % 87 % 1089,0 hPa 0,0 l/m 2,3 km/h (1 Bft) W 0,000 mm 0,0 UV-I 0 W/m 2,5 C 4,5 C 8,1 km/h (2 Bft)
06.01.2013 21:00 4,8 C 52 % 86 % 1089,2 hPa 0,3 l/m 4,0 km/h (1 Bft) W-SW 0,000 mm 0,0 UV-I 0 W/m 2,7 C 4,8 C 9,6 km/h (2 Bft)
06.01.2013 22:00 4,8 C 53 % 86 % 1089,6 hPa 0,0 l/m 2,8 km/h (1 Bft) W 0,000 mm 0,0 UV-I 0 W/m 2,7 C 4,8 C 7,4 km/h (2 Bft)
06.01.2013 23:00 4,9 C 51 % 86 % 1089,7 hPa 0,0 l/m 2,6 km/h (1 Bft) W 0,000 mm 0,0 UV-I 0 W/m 2,8 C 4,9 C 7,2 km/h (2 Bft)
Min-Datum _ 01.01.13 01.01.13 01.01.13 01.01.13 - 31.12.12 - - - - 01.01.13 02.01.13 31.12.12
_ Min-Zeit 09:33 13:29 12:08 12:01 - 08:51 - - - - 08:43 14:30 22:39
Minimum _ -0,8 C 35 % 60 % 1073,1 hPa - 0,0 km/h (0 Bft) - - - - -4,9 C -3,2 C 0,0 km/h (0 Bft)
Max-Datum _ 04.01.13 05.01.13 03.01.13 03.01.13 03.01.13 04.01.13 - 31.12.12 31.12.12 31.12.12 04.01.13 04.01.13 02.01.13
_ Max-Zeit 20:56 20:23 23:40 22:41 09:12 01:12 - 00:00 00:00 00:00 20:56 20:56 14:10
Maximum _ 7,4 C 58 % 89 % 1097,7 hPa 1,2 l/m 13,0 km/h
W (3 Bft)
- 0,000 mm 0,0 UV-I 0 W/m 5,0 C 7,4 C 27,0 km/h
W (4 Bft)
Durchschnitt _ 3,5 C 48 % 80 % 1088,6 hPa #11,7 l/m 3,5 km/h (1 Bft) W #0,000 mm 0,0 UV-I 0 W/m 0,3 C 3,3 C 10,3 km/h (2 Bft)